Beaver Island, Nova Scotia

3:54 PM AST on February 19, 2017 (GMT -0400)
Beaver Island

Weather History for CWBV - October, 2013

Change the Weather History Date:

Saturday, October 26, 2013

  Actual Average Record
Temperature  
Mean Temperature 46 °F -  
Max Temperature 50 °F - - ()
Min Temperature 41 °F - - ()
Degree Days  
Heating Degree Days 20    
Moisture  
Dew Point 38 °F    
Average Humidity 73    
Maximum Humidity 89    
Minimum Humidity 51    
Precipitation  
Precipitation 0.00 in - - ()
Sea Level Pressure  
Sea Level Pressure 30.00 in    
Wind  
Wind Speed 13 mph ()    
Max Wind Speed 25 mph    
Max Gust Speed 29 mph    
T = Trace of Precipitation, MM = Missing Value Source: Averaged Metar Reports

Daily Weather History Graph

Daily Weather History Graph

Search for Another Location

Airport or City:

Trip Planner

Search our weather history database for the weather conditions in past years. The results will help you decide how hot, cold, wet, or windy it might be!

Date:

Astronomy

Oct. 26, 2013 Rise Set
Actual Time 7:39 AM ADT 6:06 PM ADT
Civil Twilight 7:09 AM ADT 6:36 PM ADT
Nautical Twilight 6:35 AM ADT 7:10 PM ADT
Astronomical Twilight 6:01 AM ADT 7:44 PM ADT
Moon No Moon Rise 1:55 PM ADT (10/26)
Length of Visible Light 11h 26m
Length of Day
10h 26m
Waning Gibbous, 53% of the Moon is Illuminated
Oct 26
Waning Gibbous
Oct 26
Last Quarter
Nov 3
New
Nov 10
First Quarter
Nov 17
Full

Hourly Weather History & Observations

Time (ADT) Temp. Windchill Dew Point Humidity Pressure Visibility Wind Dir Wind Speed Gust Speed Precip Events Conditions
12:00 AM 45 °F - 39 °F 74% 29.92 in - WNW 16.1 mph - -  
12:00 AM 44.8 °F 37.7 °F 39.4 °F 81% 29.92 in - WNW 16.1 mph - N/A   Unknown
1:00 AM 44.6 °F 38.1 °F 38.1 °F 78% 29.93 in - WNW 13.8 mph - N/A   Unknown
2:00 AM 44.6 °F 38.4 °F 39.9 °F 84% 29.93 in - WNW 12.7 mph - N/A   Unknown
3:00 AM 44 °F - 40 °F 79% 29.94 in - NW 13.8 mph - -  
3:00 AM 44.2 °F 37.6 °F 39.7 °F 84% 29.94 in - NW 13.8 mph - N/A   Unknown
4:00 AM 43.3 °F 36.8 °F 39.7 °F 87% 29.93 in - NW 12.7 mph - N/A   Unknown
5:00 AM 43.0 °F 36.0 °F 39.4 °F 87% 29.94 in - WNW 13.8 mph - N/A   Unknown
6:00 AM 42 °F - 38 °F 80% 29.96 in - NW 11.5 mph - -  
6:00 AM 41.9 °F 35.4 °F 37.9 °F 86% 29.96 in - NW 11.5 mph - N/A   Unknown
7:00 AM 41.9 °F 35.0 °F 38.5 °F 88% 29.97 in - WNW 12.7 mph - N/A   Unknown
8:00 AM 41.9 °F 35.4 °F 38.8 °F 89% 29.99 in - WNW 11.5 mph - N/A   Unknown
9:00 AM 44 °F - 39 °F 78% 30.02 in - West 10.4 mph - -  
9:00 AM 43.9 °F 38.3 °F 39.4 °F 84% 30.02 in - West 10.4 mph - N/A   Unknown
10:00 AM 44.4 °F 37.9 °F 38.3 °F 79% 30.04 in - West 13.8 mph - N/A   Unknown
11:00 AM 46.6 °F - 37.8 °F 71% 30.04 in - West 11.5 mph - N/A   Unknown
12:00 PM 48 °F - 38 °F 59% 30.04 in - WSW 16.1 mph - -  
12:00 PM 48.4 °F - 38.1 °F 68% 30.04 in - WSW 16.1 mph - N/A   Unknown
1:00 PM 49.3 °F - 36.3 °F 61% 30.02 in - WSW 18.4 mph - N/A   Unknown
2:00 PM 49.1 °F - 39.0 °F 68% 30.02 in - SW 24.2 mph - N/A   Unknown
3:00 PM 50 °F - 38 °F 54% 30.02 in - WSW 21.9 mph - -  
3:00 PM 49.6 °F - 38.5 °F 65% 30.02 in - WSW 21.9 mph - N/A   Unknown
4:00 PM 47.8 °F - 35.4 °F 62% 30.02 in - WSW 25.3 mph - N/A   Unknown
5:00 PM 47.3 °F - 33.3 °F 58% 30.03 in - WSW 21.9 mph 28.8 mph N/A   Unknown
6:00 PM 46 °F - 34 °F 51% 30.04 in - West 16.1 mph - -  
6:00 PM 46.2 °F 39.5 °F 33.6 °F 61% 30.04 in - West 16.1 mph - N/A   Unknown
7:00 PM 45.5 °F 39.2 °F 34.0 °F 64% 30.06 in - West 13.8 mph - N/A   Unknown
8:00 PM 45.0 °F 39.3 °F 34.3 °F 66% 30.07 in - West 11.5 mph - N/A   Unknown
10:00 PM 46.8 °F - 36.9 °F 68% 30.07 in - SW 9.2 mph - N/A   Unknown
11:00 PM 47.8 °F - 40.5 °F 76% 30.06 in - South 5.8 mph - N/A   Unknown